Location: Peach Mountain Observatory
(42.3967°N, 83.9367°W)
Time: 03:35:13
(UTC-05:00)

Tiros 1 despin weight - Pass Details

Date: 24 January 2020
Orbit: 594 x 642 km, 48.2° (Epoch: 25 February)

Event Time Altitude Azimuth Distance (km) Brightness Sun altitude
Rises 19:18:51 0° 285° (WNW) 2,930 ? -18.4°
Reaches altitude 10° 19:22:02 10° 262° (W) 2,024 ? -19.0°
Maximum altitude 19:24:41 15° 227° (SW) 1,707 ? -19.4°
Drops below altitude 10° 19:27:20 10° 192° (SSW) 2,022 ? -19.9°
Sets 19:30:32 0° 170° (S) 2,927 ? -20.5°
